Regional Weather Roundup
Issued by NWS

Home | Current Version | Previous Version | Text Only | Print | Product List | Glossary Off
Versions: 1 2 3 4 5 6 7 8 9 10 11 12 13 14 15 16 17 18 19 20 21 22 23 24 25 26 27 28

000
ASUS45 KBOI 251410
RWRID

IDAHO REGIONAL WEATHER ROUNDUP
NATIONAL WEATHER SERVICE BOISE ID
800 AM MDT MON JUL 25 2016

NOTE: "FAIR" INDICATES FEW OR NO CLOUDS BELOW 12000 FEET
WITH NO SIGNIFICANT WEATHER AND/OR OBSTRUCTIONS TO VISIBILITY

IDZ012-014-251500-
SOUTHWEST IDAHO


CITY           SKY/WX    TMP DP  RH WIND       PRES   REMARKS
BOISE          SUNNY     68  39  34 SE3       30.02S
CALDWELL       NOT AVBL
MOUNTAIN HOME  SUNNY     64  36  35 E5        30.05R
$$

IDZ016-017-251500-
SOUTHCENTRAL IDAHO


CITY           SKY/WX    TMP DP  RH WIND       PRES   REMARKS
BURLEY         SUNNY     56  44  64 SE5       30.10R
JEROME         SUNNY     64  43  46 NE6       30.11R
TWIN FALLS     SUNNY     69  28  21 SW10      30.10R
$$

IDZ019>023-251500-
SOUTHEAST IDAHO


CITY           SKY/WX    TMP DP  RH WIND       PRES   REMARKS
IDAHO FALLS    SUNNY     53  43  68 N5        30.17R
POCATELLO      SUNNY     58  34  40 CALM      30.14S
REXBURG        SUNNY     52  42  69 CALM      30.19R
$$

IDZ006-010-011-018-031-032-251500-
CENTRAL IDAHO MOUNTAINS


CITY           SKY/WX    TMP DP  RH WIND       PRES   REMARKS
MCCALL         SUNNY     55  45  68 CALM      30.17R
HAILEY         SUNNY     55  36  47 NW12      30.21R
STANLEY        NOT AVBL
SALMON         SUNNY     55  43  62 CALM      30.13S
CHALLIS        SUNNY     60  36  40 CALM      30.18R
$$

IDZ002-004-006-007-026-251500-
NORTHERN IDAHO


CITY           SKY/WX    TMP DP  RH WIND       PRES   REMARKS
LEWISTON       SUNNY     67  49  52 E6        30.02R
LOWELL           N/A     54  50  86 CALM      30.10R
COEUR D`ALENE  SUNNY     63  54  72 NE6       30.05R
MULLAN PASS    SUNNY     61  44  53 CALM      30.23R
$$




USA.gov is the U.S. government's official web portal to all federal, state and local government web resources and services.